Regional Weather Roundup
Issued by NWS

Home | Current Version | Previous Version | Text Only | Print | Product List | Glossary On
Versions: 1 2 3 4 5 6 7 8 9 10 11 12 13 14 15 16 17 18 19 20 21 22 23 24 25 26 27 28 29 30 31 32 33 34 35 36 37 38 39 40 41 42 43 44 45 46 47 48 49 50
000
ASUS43 KMKX 040400
RWRWI

WISCONSIN REGIONAL WEATHER ROUNDUP
NATIONAL WEATHER SERVICE MILWAUKEE/SULLIVAN WI
1100 PM CDT THU SEP 03 2015

NOTE: "FAIR" INDICATES FEW OR NO CLOUDS BELOW 12,000 FEET WITH NO
SIGNIFICANT WEATHER AND/OR OBSTRUCTIONS TO VISIBILITY.

WIZ001-002-006>008-014>016-023>028-040500-
NORTHWEST WISCONSIN

CITY           SKY/WX    TMP DP  RH WIND       PRES   REMARKS
SUPERIOR ARPT  CLEAR     58  55  91 NE9       29.97F
ASHLAND        CLEAR     53  53 100 CALM      30.00R
HAYWARD        CLEAR     66  64  93 CALM      29.99R
SIREN          CLEAR     69  67  92 CALM      29.95R
CUMBERLAND     CLEAR     68  64  88 SE5       29.97S
RICE LAKE      CLEAR     68  65  90 E7        29.98S
CHETEK         CLEAR     68  67  94 SE3       29.97R
LADYSMITH      CLEAR     67  65  94 E3        30.01R
EAU CLAIRE     NOT AVBL
MENOMONIE      PTCLDY    71  67  87 E5        29.95R
NEW RICHMOND   PTCLDY    71  65  81 SE7       29.94S
OSCEOLA        MOCLDY    72  67  86 E7        29.96R
$$

WIZ003>005-009-010-017-018-040500-
NORTH CENTRAL WISCONSIN

CITY           SKY/WX    TMP DP  RH WIND       PRES   REMARKS
MANITOWISH WTR FOG       60  60 100 CALM      30.02S VSB 1/2
ARBOR VITAE    CLEAR     64  62  93 CALM      30.03R
WOODRUFF       CLEAR     64  62  93 CALM      30.03R
RHINELANDER    FOG       58  57  97 CALM      30.04R VSB 1/2
EAGLE RIVER    CLEAR     63  63 100 E5        30.03S
LAND O LAKES   CLEAR     61  61 100 E3        30.05R
PHILLIPS       CLEAR     64  64  99 CALM      30.01R
TOMAHAWK       FOG       58  57  96 CALM      30.03R VSB 1
MEDFORD        CLEAR     64  64  99 CALM      30.01R
MERRILL        FOG       58  58 100 CALM      30.02R VSB 1/4
$$

WIZ029-030-035-036-043>047-040500-
CENTRAL WISCONSIN

CITY           SKY/WX    TMP DP  RH WIND       PRES   REMARKS
WAUSAU         CLEAR     64  63  96 CALM      29.99R
MOSINEE        CLEAR     64  64 100 CALM      30.01S
MARSHFIELD     CLEAR     66  62  87 E5        30.00R
STEVENS POINT  CLEAR     62  62  99 CALM      30.00R
WAUPACA        CLEAR     64  64  98 CALM      29.98S FOG
WAUTOMA        NOT AVBL
WISC RAPIDS    CLEAR     65  62  90 CALM      30.00R
CAMP DOUGLAS   PTCLDY    68  68 100 E2        29.97S FOG
$$

WIZ011>013-019>022-031-037>040-048>050-040500-
NORTHEAST WISCONSIN

CITY           SKY/WX    TMP DP  RH WIND       PRES   REMARKS
ANTIGO         CLEAR     63  62  97 E5        30.03R
SHAWANO        NOT AVBL
OCONTO         CLEAR     62  62 100 CALM      29.97S
STURGEON BAY   PTCLDY    64  63  94 NE3       29.99S
GREEN BAY      CLEAR     65  63  93 N6        29.97S
MANITOWOC      NOT AVBL
APPLETON       PTCLDY    66  64  94 N7        29.97S
CLINTONVILLE   FOG       63  63 100 NE3       29.99R VSB 1/2
OSHKOSH        CLEAR     66  63  90 CALM      29.97R
$$

WIZ032>034-041-042-053>061-040500-
SOUTHWEST WISCONSIN

CITY           SKY/WX    TMP DP  RH WIND       PRES   REMARKS
LA CROSSE      CLEAR     76  69  79 SE6       29.93R
SPARTA         PTCLDY    72  64  76 CALM      29.97R
VIROQUA          N/A     72  70  93 E10G16    29.97R
BOSCOBEL       PTCLDY    77  69  76 VRB3      29.94R
PRAIRIE DU CHI MOCLDY    76  73  91 CALM      29.92R
PLATTEVILLE    MOCLDY    77  75  93 E10       29.95R
$$

WIZ056-057-062-063-064-067-068-040500-
SOUTH CENTRAL WISCONSIN

CITY           SKY/WX    TMP DP  RH WIND       PRES   REMARKS
REEDSBURG      CLEAR     70  67  90 CALM      29.97S
BARABOO/DELLS  PTCLDY    69  65  88 CALM      29.97S
LONE ROCK      NOT AVBL
MINERAL POINT  PTCLDY    73  72  94 E9        29.97R
MADISON        MOCLDY    70  65  84 NE3       29.97R
MIDDLETON      CLEAR     71  67  89 E6        29.98S
WATERTOWN      CLOUDY    71  71 100 CALM      29.97R
MONROE         PTCLDY    72  68  88 NE8       29.96S
JANESVILLE     CLOUDY    73  72  94 E3        29.95S
$$

WIZ051-052-058>065-066-070>072-040500-
SOUTHEAST WISCONSIN

CITY           SKY/WX    TMP DP  RH WIND       PRES   REMARKS
MILWAUKEE      MOCLDY    67  64  90 N3        29.96R
WAUKESHA       CLOUDY    68  63  83 CALM      29.98R
MILWAUKEE/TIMM PTCLDY    66  61  82 CALM      29.97R
RACINE         MOCLDY    66  63  90 CALM      29.99R
BURLINGTON     CLOUDY    68  64  87 CALM      29.96S
KENOSHA        CLOUDY    69  65  86 NE6       29.97R
FOND DU LAC    CLEAR     65  64  97 NW5       29.97S
SHEBOYGAN      CLEAR     64  63  96 N3        29.96S
WEST BEND      CLEAR     63  61  94 CALM      29.97R FOG
JUNEAU         MOCLDY    67  65  93 CALM      29.98R
$$

LSZ147-162-040500-
LAKE SUPERIOR

STATION/POSITION TIME  TEMP    WIND        PRES    WAVE
                       AIR SEA DIR/SP/G            HT/PER
                 (UTC) (F)     (DEG/KT/KT) (MB)    (FT/S)
W MID LAKE BUOY  0250   60 57   70/ 10/ 12 1015.5R   1
DEVILS ISLAND    0300   60      70/  6/  6 1015.5R
PORT WING        0340   56      40/  5/  6 1015.6R
SAXON HARBOR     0300   59        CALM     1014.9R
$$

LMZ867-665-643>646-040500-
LAKE MICHIGAN

STATION/POSITION TIME  TEMP    WIND        PRES    WAVE
                       AIR SEA DIR/SP/G            HT/PER
                 (UTC) (F)     (DEG/KT/KT) (MB)    (FT/S)
CHAMBERS ISLAND  0300   68      40/ 11/ 14 1014.9R
N MID LAKE BUOY  0250   68 66   60/ 12/ 14 1014.2R   2/ 3
NORTHPORT PIER   0300   69      40/ 10/ 13 1014.9R
SISTER BAY       0311   68      30/  5/  9   N/A
ALGOMA LAKESHORE 0329          330/  5/  6   N/A
KEWAUNEE LAKESHO 0300   64     310/  4/  5 1013.7R
SHEBOYGAN LAKESH 0300   64     350/ 11/ 12 1014.4F
PORT WASHINGTON  0300   67     320/  4/  6 1014.6F
ATWATER BUOY     0300   58     270/  2/  4 1015.4F
MILWAUKEE LAKESH 0310   66      10/  7/  9   N/A
S MID LAKE BUOY  0250   70 71  360/ 12/ 14 1013.0R
KENOSHA   LAKESH 0300   65     340/  7/  8 1014.2R
$$

TC  - TEMPERATURE IN CELSIUS
VSB - VISIBILITY IN STATUTE MILES
WCI - WIND CHILL INDEX
HX  - HEAT INDEX



USA.gov is the U.S. government's official web portal to all federal, state and local government web resources and services.